Anoka County, MN

6:20 AM CDT on July 28, 2017 (GMT -0500)
Anoka County / Blaine Airport

Weather History for KANE - August, 2012

Change the Weather History Date:

Wednesday, August 8, 2012

  Actual Average Record
Temperature  
Mean Temperature 68 °F -  
Max Temperature 75 °F 77 °F 95 °F (2001)
Min Temperature 62 °F 57 °F 53 °F (1999)
Cooling Degree Days 4    
Growing Degree Days 18 (Base 50)    
Moisture  
Dew Point 62 °F    
Average Humidity 83    
Maximum Humidity 94    
Minimum Humidity 61    
Precipitation  
Precipitation 0.00 in - - ()
Sea Level Pressure  
Sea Level Pressure 30.00 in    
Wind  
Wind Speed 3 mph (NE)    
Max Wind Speed 12 mph    
Max Gust Speed 17 mph    
Visibility 10 miles    
Events      
Averages and records for this station are not official NWS values.
T = Trace of Precipitation, MM = Missing Value Source: NWS Daily Summary

Daily Weather History Graph

Daily Weather History Graph

Search for Another Location

Airport or City:

Trip Planner

Search our weather history database for the weather conditions in past years. The results will help you decide how hot, cold, wet, or windy it might be!

Date:

Astronomy

Aug. 08, 2012 Rise Set
Actual Time 6:06 AM CDT 8:29 PM CDT
Civil Twilight 5:33 AM CDT 9:02 PM CDT
Nautical Twilight 4:52 AM CDT 9:42 PM CDT
Astronomical Twilight 4:06 AM CDT 10:28 PM CDT
Moon 11:20 PM CDT (8/8) 1:15 PM CDT (8/8)
Length of Visible Light 15h 28m
Length of Day
14h 22m
Waning Gibbous, 60% of the Moon is Illuminated
Aug 8
Waning Gibbous
Aug 9
Last Quarter
Aug 17
New
Aug 24
First Quarter
Aug 31
Full

Hourly Weather History & Observations

Time (CDT) Temp. Dew Point Humidity Pressure Visibility Wind Dir Wind Speed Gust Speed Precip Events Conditions
12:13 AM 66.2 °F 59.0 °F 78% 30.01 in 10.0 mi NE 3.5 mph - N/A   Clear
12:34 AM 66.2 °F 60.8 °F 83% 30.01 in 10.0 mi Calm Calm - N/A   Clear
12:54 AM 66.2 °F 59.0 °F 78% 30.02 in 10.0 mi Calm Calm - N/A   Clear
1:14 AM 66.2 °F 59.0 °F 78% 30.02 in 10.0 mi Calm Calm - N/A   Clear
1:34 AM 64.4 °F 59.0 °F 83% 30.02 in 10.0 mi Calm Calm - N/A   Clear
1:54 AM 64.4 °F 59.0 °F 83% 30.02 in 10.0 mi Calm Calm - N/A   Clear
2:14 AM 64.4 °F 60.8 °F 88% 30.01 in 10.0 mi Calm Calm - N/A   Clear
2:34 AM 64.4 °F 60.8 °F 88% 30.00 in 10.0 mi Calm Calm - N/A   Clear
2:54 AM 62.6 °F 60.8 °F 94% 30.00 in 10.0 mi Calm Calm - N/A   Clear
3:14 AM 64.4 °F 60.8 °F 88% 30.00 in 10.0 mi Calm Calm - N/A   Clear
3:34 AM 64.4 °F 60.8 °F 88% 30.00 in 10.0 mi Calm Calm - N/A   Clear
3:53 AM 62.6 °F 60.8 °F 94% 29.99 in 10.0 mi Calm Calm - N/A   Clear
4:14 AM 64.4 °F 60.8 °F 88% 29.99 in 10.0 mi Calm Calm - N/A   Clear
4:34 AM 64.4 °F 60.8 °F 88% 29.97 in 10.0 mi ESE 3.5 mph - N/A   Clear
4:54 AM 64.4 °F 60.8 °F 88% 29.97 in 10.0 mi Calm Calm - N/A   Clear
5:14 AM 66.2 °F 60.8 °F 83% 29.97 in 10.0 mi NE 3.5 mph - N/A   Clear
5:34 AM 66.2 °F 60.8 °F 83% 29.97 in 10.0 mi ENE 6.9 mph - N/A   Clear
5:54 AM 66.2 °F 60.8 °F 83% 29.96 in 10.0 mi East 4.6 mph - N/A   Clear
6:14 AM 66.2 °F 60.8 °F 83% 29.95 in 10.0 mi Calm Calm - N/A   Clear
6:34 AM 66.2 °F 60.8 °F 83% 29.97 in 10.0 mi SSE 5.8 mph - N/A   Clear
6:45 AM 66.2 °F 60.8 °F 83% 29.97 in 10.0 mi Calm Calm - N/A   Mostly Cloudy
6:54 AM 66.2 °F 60.8 °F 83% 29.99 in 10.0 mi Calm Calm - N/A   Scattered Clouds
7:55 AM 69.8 °F 62.6 °F 78% 30.01 in 10.0 mi Calm Calm - N/A   Mostly Cloudy
8:45 AM 71.6 °F 60.8 °F 69% 29.99 in 10.0 mi ESE 5.8 mph - N/A   Mostly Cloudy
9:50 AM 73.4 °F 60.8 °F 65% 30.02 in 10.0 mi Calm Calm - N/A   Overcast
10:45 AM 75.2 °F 62.6 °F 65% 30.01 in 10.0 mi NNE 5.8 mph - N/A   Mostly Cloudy
11:50 AM 75.2 °F 60.8 °F 61% 29.99 in 10.0 mi NE 9.2 mph - N/A   Mostly Cloudy
12:50 PM 71.6 °F 64.4 °F 78% 29.98 in 10.0 mi NE 9.2 mph - N/A   Mostly Cloudy
1:50 PM 73.4 °F 66.2 °F 78% 29.97 in 12.0 mi NE 9.2 mph - N/A   Mostly Cloudy
2:45 PM 71.6 °F 64.4 °F 78% 29.97 in 12.0 mi NNE 11.5 mph 17.3 mph N/A   Mostly Cloudy
3:45 PM 71.6 °F 62.6 °F 73% 29.97 in 12.0 mi NNE 11.5 mph 17.3 mph N/A   Overcast
4:45 PM 69.8 °F 64.4 °F 83% 29.98 in 12.0 mi NNE 11.5 mph 17.3 mph N/A   Overcast
5:55 PM 69.8 °F 62.6 °F 78% 29.98 in 12.0 mi NE 11.5 mph - N/A   Overcast
6:45 PM 69.8 °F 62.6 °F 78% 29.99 in 12.0 mi NE 11.5 mph 17.3 mph N/A   Mostly Cloudy
7:55 PM 69.8 °F 62.6 °F 78% 30.00 in 12.0 mi NE 9.2 mph - N/A   Mostly Cloudy
8:45 PM 69.8 °F 62.6 °F 78% 30.00 in 12.0 mi NE 6.9 mph - N/A   Mostly Cloudy
9:14 PM 66.2 °F 62.6 °F 88% 30.01 in 10.0 mi North 4.6 mph - N/A   Mostly Cloudy
9:34 PM 66.2 °F 62.6 °F 88% 30.01 in 10.0 mi North 5.8 mph - N/A   Scattered Clouds
9:45 PM 64.4 °F 62.6 °F 94% 30.02 in 12.0 mi North 6.9 mph - N/A   Scattered Clouds
9:53 PM 64.4 °F 62.6 °F 94% 30.02 in 10.0 mi North 5.8 mph - N/A   Clear
10:14 PM 64.4 °F 62.6 °F 94% 30.03 in 10.0 mi NNE 6.9 mph - N/A   Clear
10:34 PM 64.4 °F 62.6 °F 94% 30.02 in 10.0 mi NE 4.6 mph - N/A   Clear
10:54 PM 64.4 °F 62.6 °F 94% 30.01 in 10.0 mi North 4.6 mph - N/A   Clear
11:14 PM 64.4 °F 62.6 °F 94% 30.01 in 10.0 mi North 4.6 mph - N/A   Clear
11:34 PM 62.6 °F 60.8 °F 94% 30.01 in 10.0 mi North 4.6 mph - N/A   Clear
11:54 PM 62.6 °F 60.8 °F 94% 30.01 in 10.0 mi North 5.8 mph - N/A   Clear